Zurück zum Katalog

STARLINK-6165

AktivKommunikationVLEO
NORAD 57127·PAYLOAD·🇺🇸 United States

Gestartet Jun 23, 2023 von Cape Canaveral Space Force Station

Loading…

Nächste Überflüge (nächste 24 Stunden)

TLE

AktuellSource: CelesTrak SupGP

Epoche: Sep 15, 2026, 03:13 UTC

1 57127C 23090AC  26258.13451389  .00000407  00000+0  14744-4 0  2585
2 57127  42.9994 291.4782 0001494 258.5635 247.8262 15.27576696    12

Verfolge STARLINK-6165 in Echtzeit mit AllMySat

Download on the App Store